This demonstration page uses our WeatherBlox Daily Observations layout. Learn more.

Hourly Observations for July 29, 2019

Temp ( °F °C ) Dew Point ( °F °C ) Humidity (%) Winds ( mph kmh ) Pressure ( in mb ) Visibility ( mi km ) Precip ( " mm )
12:15 am 00:15 Clear 72 22.2 71 21.5 96 96 N 6 9 29.94 1014 10 16.09344 0 0
12:35 am 00:35 Clear 72 22.3 71 21.5 95 95 N 6 9 29.94 1014 10 16.09344 0 0
12:55 am 00:55 Clear 72 22 70 21.3 96 96 N 5 7 29.94 1014 10 16.09344 0 0
1:15 am 01:15 Clear 70 21.3 70 21 98 98 N 6 9 29.94 1014 7 11.265408 0 0
1:35 am 01:35 Clear 72 22 70 21.2 95 95 NNE 12 19 29.97 1015 10 16.09344 0 0
1:55 am 01:55 Clear 71 21.7 70 21 96 96 NNE 8 13 29.97 1015 10 16.09344 0 0
2:15 am 02:15 Clear 70 21 69 20.5 97 97 N 5 7 29.97 1015 10 16.09344 0 0
2:35 am 02:35 Clear 69 20.5 69 20.3 99 99 NNE 3 6 29.97 1015 10 16.09344 0 0
2:55 am 02:55 Clear 67 19.3 66 19.1 99 99 NE 5 7 30 1016 7 11.265408 0 0
3:15 am 03:15 Clear 67 19.5 67 19.5 100 100 NNE 6 9 30 1016 7 11.265408 0 0
3:35 am 03:35 Clear 66 19.1 66 19.1 100 100 N 5 7 30 1016 10 16.09344 0 0
3:55 am 03:55 Clear 66 19 66 19 100 100 N 3 6 30 1016 10 16.09344 0 0
4:15 am 04:15 Clear 66 18.7 66 18.7 100 100 N 7 11 30 1016 10 16.09344 0 0
4:35 am 04:35 Clear 64 18 64 17.7 98 98 N 5 7 30 1016 10 16.09344 0 0
4:55 am 04:55 Clear 64 17.8 64 17.6 99 99 N 5 7 30 1016 10 16.09344 0 0
5:15 am 05:15 Clear 64 17.6 63 17.4 99 99 N 5 7 30.03 1017 10 16.09344 0 0
5:35 am 05:35 Clear 63 17.1 62 16.8 98 98 NW 3 6 30.03 1017 10 16.09344 0 0
5:55 am 05:55 Clear 62 16.5 61 16.2 98 98 WNW 5 7 30.06 1018 10 16.09344 0 0
6:15 am 06:15 Clear 62 16.5 61 16.1 98 98 Calm 30.06 1018 10 16.09344 0 0
6:35 am 06:35 Sunny 60 15.8 60 15.7 99 99 Calm 30.06 1018 10 16.09344 0 0
6:55 am 06:55 Sunny 60 15.7 60 15.5 99 99 Calm 30.09 1019 10 16.09344 0 0
7:15 am 07:15 Sunny 61 16 61 15.9 99 99 NW 3 6 30.09 1019 10 16.09344 0 0
7:35 am 07:35 Sunny 63 17 61 16.2 95 95 WNW 3 6 30.09 1019 10 16.09344 0 0
7:55 am 07:55 Sunny 64 18 62 16.6 92 92 WNW 3 6 30.06 1018 10 16.09344 0 0
8:15 am 08:15 Sunny 66 18.7 63 17 90 90 Calm 30.06 1018 10 16.09344 0 0
8:35 am 08:35 Sunny 68 19.8 63 17 84 84 Calm 30.06 1018 10 16.09344 0 0
8:55 am 08:55 Sunny 69 20.8 64 17.7 83 83 Calm 30.03 1017 10 16.09344 0 0
9:15 am 09:15 Sunny 71 21.8 64 18 79 79 Calm 30.03 1017 10 16.09344 0 0
9:35 am 09:35 Sunny 73 22.8 63 17.3 71 71 Calm 30.03 1017 10 16.09344 0 0
9:55 am 09:55 Sunny 74 23.6 62 16.7 65 65 Calm 30.03 1017 10 16.09344 0 0
10:15 am 10:15 Sunny 76 24.3 60 15.8 59 59 Calm 30.03 1017 10 16.09344 0 0
10:35 am 10:35 Sunny 77 25.2 61 16.1 57 57 Calm 30 1016 10 16.09344 0 0
10:55 am 10:55 Sunny 78 25.8 60 15.3 52 52 Calm 30 1016 10 16.09344 0 0
11:15 am 11:15 Sunny 79 26.2 57 13.8 46 46 ENE 3 6 30 1016 10 16.09344 0 0
11:35 am 11:35 Sunny 79 26.1 57 14 47 47 Calm 30 1016 10 16.09344 0 0
11:55 am 11:55 Sunny 80 26.5 58 14.5 48 48 Calm 30 1016 10 16.09344 0 0
12:15 pm 12:15 Sunny 80 26.7 55 12.7 42 42 Calm 30 1016 10 16.09344 0 0
12:35 pm 12:35 Sunny 81 27.2 57 13.7 43 43 ENE 3 6 30 1016 10 16.09344 0 0
12:55 pm 12:55 Sunny 81 27.1 56 13.4 43 43 ENE 3 6 30 1016 10 16.09344 0 0
1:15 pm 13:15 Sunny 81 27.3 58 14.4 45 45 S 3 6 30 1016 10 16.09344 0 0
1:35 pm 13:35 Sunny 81 27.2 57 14 44 44 E 5 7 30 1016 10 16.09344 0 0
1:55 pm 13:55 Sunny 82 27.8 55 13 40 40 ESE 3 6 30 1016 10 16.09344 0 0
2:15 pm 14:15 Sunny 81 27 55 12.5 41 41 Calm 30 1016 10 16.09344 0 0
2:35 pm 14:35 Partly Cloudy 82 28 55 13 40 40 Calm 30 1016 10 16.09344 0 0
2:55 pm 14:55 Partly Cloudy 82 27.7 57 13.9 43 43 Calm 30 1016 10 16.09344 0 0
3:15 pm 15:15 Sunny 82 28 57 14.1 43 43 NNE 3 6 30 1016 10 16.09344 0 0
3:35 pm 15:35 Sunny 83 28.3 57 14 42 42 S 3 6 29.94 1014 10 16.09344 0 0
3:55 pm 15:55 Sunny 83 28.3 58 14.3 42 42 SE 3 6 29.94 1014 10 16.09344 0 0
4:15 pm 16:15 Sunny 83 28.2 57 14.1 42 42 E 3 6 29.94 1014 10 16.09344 0 0
4:35 pm 16:35 Sunny 82 28 57 14.1 43 43 E 5 7 29.94 1014 10 16.09344 0 0
4:55 pm 16:55 Mostly Cloudy 83 28.4 58 14.5 43 43 SE 5 7 29.94 1014 10 16.09344 0 0
5:15 pm 17:15 Partly Cloudy 83 28.3 58 14.7 43 43 ESE 6 9 29.94 1014 10 16.09344 0 0
5:35 pm 17:35 Sunny 83 28.3 60 15.5 46 46 SE 6 9 29.94 1014 10 16.09344 0 0
5:55 pm 17:55 Partly Cloudy 83 28.5 57 13.9 41 41 E 7 11 29.94 1014 10 16.09344 0 0
6:15 pm 18:15 Partly Cloudy 83 28.5 59 15.1 44 44 ESE 5 7 29.94 1014 10 16.09344 0 0
6:35 pm 18:35 Partly Cloudy 83 28.2 59 14.9 44 44 SE 6 9 29.94 1014 10 16.09344 0 0
6:55 pm 18:55 Sunny 82 27.8 61 15.9 48 48 SE 3 6 29.91 1013 10 16.09344 0 0
7:15 pm 19:15 Sunny 82 27.7 61 16.1 49 49 SE 3 6 29.91 1013 10 16.09344 0 0
7:35 pm 19:35 Partly Cloudy 81 27.3 61 15.9 50 50 SSE 3 6 29.94 1014 7 11.265408 0 0
7:55 pm 19:55 Partly Cloudy 80 26.5 64 18 60 60 SE 3 6 29.94 1014 10 16.09344 0 0
8:15 pm 20:15 Partly Cloudy 78 25.3 67 19.2 69 69 ESE 5 7 29.94 1014 10 16.09344 0 0
8:35 pm 20:35 Partly Cloudy 75 23.8 67 19.3 76 76 ESE 6 9 30 1016 10 16.09344 0 0
8:55 pm 20:55 Partly Cloudy 73 22.5 67 19.3 82 82 ESE 6 9 30 1016 10 16.09344 0 0
9:15 pm 21:15 Partly Cloudy 71 21.6 66 18.8 84 84 E 7 11 30 1016 10 16.09344 0 0
9:35 pm 21:35 Clear 71 21.4 65 18.6 84 84 ESE 7 11 30 1016 10 16.09344 0 0
9:55 pm 21:55 Clear 68 20.2 64 17.9 87 87 E 8 13 30.03 1017 10 16.09344 0 0
10:15 pm 22:15 Clear 68 19.8 64 17.7 88 88 E 6 9 30.03 1017 10 16.09344 0 0
10:35 pm 22:35 Clear 68 19.8 64 17.5 87 87 E 7 11 30.06 1018 10 16.09344 0 0
10:55 pm 22:55 Clear 67 19.5 63 17.2 87 87 E 7 11 30.06 1018 10 16.09344 0 0
11:15 pm 23:15 Partly Cloudy 67 19.5 62 16.9 85 85 ESE 5 7 30.06 1018 10 16.09344 0 0
11:35 pm 23:35 Partly Cloudy 67 19.5 63 17 86 86 ESE 3 6 30.06 1018 10 16.09344 0 0
11:55 pm 23:55 Clear 67 19.4 62 16.8 85 85 ESE 5 7 30.06 1018 10 16.09344 0 0

Powered by AerisWeather